sat.trackr.live / text

‹ back to catalog

DOJO

NORAD 65302 · 2025-185F

PAYLOAD ACTIVE UNKNOWN

§ Identity

Operator
Country
RWA
Launch date
2025-08-23
Launch site
RLLB
Launch vehicle
Mass (kg)
RCS (m²)

External: N2YO · Heavens-Above · Gunter

§ Orbital elements

Epoch: 2026-05-25T04:59:50.436096Z

Period
97.37 min
Inclination
97.9642°
Eccentricity
0.0016931
Mean motion
14.78844433 rev/d
Perigee alt
621.1 km
Apogee alt
644.8 km
Semi-major
7,011.1 km
B*
1.2410e-3
RAAN
228.8127°
Arg perigee
150.7365°
Mean anomaly
209.4798°
Rev number
4,044

§ Raw data

DOJO1 65302U 25185F   26145.20822264  .00009113  00000+0  12410-2 0  99942 65302  97.9642 228.8127 0016931 150.7365 209.4798 14.78844433 40449

JSON: /api/v1/satellites/65302 · /tle

For live sub-satellite position, see the globe view (requires WebGL).

§ Visibility from observer

Set your observer location to see the next 7 days of passes ≥ 10°. The values pass through the URL so the page stays shareable.

No JS? Fill the form by hand. The geolocation button needs JavaScript.